Theta_e
298 298 299 300 301 304 308 312 315 317 318 320 323 324 326 326 327 327 327 327 326 326 326 327 328 330 330 330 332 333 333 334 334 333 332 331 330 328 325 328 333 337 342 346 348 348 346 347 348 348 347 347 345 345 343 343 343 343 341 341 340 342 340 339 339 338 338 337 336 335 334 334 333 333 333 332 331 331 331 330 329 328 328 328 328
297 297 297 298 300 303 306 309 311 314 315 316 318 321 323 326 326 326 326 326 325 325 325 326 328 329 330 330 331 332 333 333 333 333 332 331 330 329 323 325 330 337 341 344 347 348 348 347 349 350 343 346 343 344 343 341 340 342 342 341 340 341 339 339 338 337 337 336 335 334 334 333 332 331 331 330 331 331 330 329 328 329 329 328 327
297 297 297 297 298 301 304 305 307 310 312 313 315 318 321 323 324 325 325 325 325 326 325 325 327 328 328 329 330 331 331 332 332 332 332 331 330 329 328 322 326 331 336 340 344 346 347 349 347 349 344 344 344 345 344 341 341 343 342 340 341 341 339 338 337 337 336 336 335 334 333 332 332 331 331 330 331 330 329 329 328 328 328 327 326
297 297 296 296 298 300 302 303 304 307 309 311 313 315 317 320 322 324 324 324 325 326 326 325 326 327 328 328 330 330 330 331 331 331 331 331 330 329 329 327 322 326 330 337 342 343 345 343 343 343 345 349 348 347 346 343 342 339 340 342 341 339 339 337 336 336 335 335 334 333 332 332 331 331 330 330 328 328 327 328 328 327 326 326 326
296 296 296 296 297 298 299 301 303 305 307 310 312 314 315 316 319 322 323 323 323 324 325 325 325 326 327 327 328 329 330 330 330 330 330 330 331 330 330 329 328 322 324 329 336 340 343 343 341 340 343 346 344 345 344 343 342 343 341 341 340 339 339 337 335 334 333 333 332 332 331 331 331 330 329 328 328 327 327 328 327 326 326 326 325
295 295 296 296 296 297 298 300 302 304 305 309 310 309 309 309 311 316 318 320 321 322 323 322 324 325 325 326 327 328 329 329 329 329 329 330 331 330 330 329 329 330 330 324 328 333 339 340 341 340 341 343 344 345 344 344 342 343 341 340 340 338 338 337 335 335 333 333 332 331 331 331 331 330 329 328 327 327 327 327 326 326 326 325 325
294 294 295 295 295 296 297 299 301 303 305 306 305 303 304 305 308 310 316 320 321 321 322 322 323 323 324 325 326 327 328 328 328 328 328 329 330 330 330 330 330 331 331 332 323 326 332 337 339 340 341 341 340 343 344 342 344 342 342 341 340 339 338 337 335 334 333 332 331 330 330 330 329 329 328 327 326 326 327 326 326 325 326 325 323
294 295 294 294 294 295 297 299 300 302 303 302 301 301 303 304 306 309 311 315 318 319 321 321 322 322 323 324 325 325 326 327 327 327 328 328 328 328 329 330 330 331 327 333 333 328 326 331 334 336 338 338 342 340 345 344 344 343 340 340 340 339 338 336 336 334 333 331 331 330 329 329 329 328 327 327 327 327 327 326 325 326 325 323 323
293 294 293 293 294 295 297 298 300 301 301 299 299 301 302 304 306 307 310 313 317 318 319 320 321 321 322 322 323 323 324 326 326 327 327 327 327 328 328 329 328 322 330 332 332 332 325 327 331 332 331 335 338 340 341 343 342 342 340 339 338 338 336 335 334 333 331 330 330 329 329 329 328 327 327 326 325 326 325 325 325 325 324 323 323
292 293 293 294 294 295 296 298 299 300 299 298 299 300 302 304 304 307 309 311 314 317 317 318 320 320 320 321 322 322 323 324 325 322 326 326 326 327 328 328 328 328 330 331 331 331 330 324 326 328 323 327 335 338 339 341 342 340 342 339 338 337 336 334 333 332 330 330 329 329 329 328 327 327 325 325 326 325 326 325 324 324 323 323 323
290 292 292 293 294 294 295 297 298 298 298 297 298 299 300 302 302 302 304 307 312 316 318 319 319 319 319 320 320 321 322 323 322 323 325 326 325 325 327 327 328 328 329 330 330 330 330 327 329 331 330 324 332 336 338 340 338 338 339 339 337 337 335 334 332 331 330 329 329 329 328 328 327 327 326 325 325 326 325 325 325 325 324 324 324
289 291 292 292 293 293 294 296 297 297 297 296 297 297 297 298 299 300 301 304 308 314 318 317 317 318 316 318 319 320 320 320 320 321 323 325 325 324 325 327 327 327 327 328 329 329 329 329 327 329 330 326 328 331 334 335 332 336 337 339 339 338 336 333 332 331 330 329 329 329 328 328 327 326 326 326 325 325 325 325 325 324 324 324 324
286 286 288 291 292 293 294 295 297 297 296 296 297 297 297 297 299 300 301 302 305 310 316 318 315 314 314 314 314 314 316 317 318 319 320 323 325 324 324 324 325 326 326 327 327 328 329 329 329 329 328 330 328 325 328 328 326 334 337 338 338 338 336 333 332 330 329 329 329 329 328 327 327 326 326 326 326 325 326 326 325 325 324 324 324
284 284 285 286 288 291 293 294 296 296 296 297 297 297 297 297 298 298 301 302 303 308 312 315 311 309 305 302 303 306 306 312 316 317 318 317 319 323 323 322 322 324 324 325 325 326 327 328 329 328 327 325 329 330 329 326 327 332 336 337 337 338 335 334 332 332 329 329 328 327 327 327 326 326 326 326 326 326 327 327 326 326 326 325 324
283 284 285 286 287 289 291 294 295 296 295 295 295 295 295 296 297 297 298 301 302 304 307 314 310 311 310 305 300 303 303 305 310 314 315 316 315 317 320 321 320 321 322 322 323 324 325 325 326 326 325 326 323 328 328 322 325 322 329 330 333 335 336 335 334 333 330 329 328 327 327 326 327 327 326 326 326 326 327 327 326 326 326 325 325
283 284 285 285 286 287 290 292 293 294 295 295 295 294 295 295 296 297 299 298 299 299 304 310 314 311 303 305 304 306 302 303 306 306 308 314 314 316 316 319 318 318 318 320 320 321 322 322 322 322 324 324 323 321 327 327 319 316 318 322 325 333 335 335 334 333 330 330 328 328 327 326 326 326 327 327 327 327 327 326 327 326 326 326 325
283 283 283 283 284 285 287 289 292 293 295 295 295 295 295 295 296 297 298 299 298 299 301 306 312 316 310 305 300 303 305 306 307 301 301 310 312 314 313 316 316 315 317 317 317 318 319 320 321 320 321 322 323 322 321 323 321 319 320 316 322 327 328 334 335 334 331 331 330 328 326 326 326 327 327 326 326 327 327 327 327 327 327 327 326
282 282 283 284 284 285 286 287 290 293 294 295 295 295 295 295 295 297 298 300 299 298 298 303 305 311 314 313 310 305 307 307 307 300 299 299 309 313 314 315 315 314 316 316 315 316 316 319 320 319 319 320 321 321 322 322 318 322 323 322 324 327 327 329 333 332 332 332 330 329 327 327 327 327 326 327 327 326 327 327 327 328 327 327 327
281 282 282 282 283 284 285 286 288 291 294 294 295 295 295 294 295 297 298 300 300 298 298 299 303 306 312 314 309 304 311 307 305 303 298 299 301 308 311 314 314 315 315 315 316 316 316 317 318 319 319 319 320 320 321 321 316 317 315 315 321 324 325 324 326 328 330 331 330 329 328 328 327 327 327 327 327 327 328 328 328 329 328 328 327
281 281 281 281 282 283 284 286 287 288 291 293 294 295 294 295 295 297 299 300 300 299 298 299 298 299 308 311 308 306 311 312 312 307 304 300 299 299 303 311 313 314 315 314 315 316 315 315 318 317 318 319 319 319 319 319 319 319 315 316 321 323 324 323 323 322 325 327 330 331 330 330 328 327 327 328 327 328 329 328 328 328 328 328 327
280 280 280 281 281 282 284 284 284 286 288 291 293 295 295 294 294 295 296 298 299 300 299 298 299 298 302 308 302 306 309 311 308 299 305 302 301 303 302 303 310 312 313 315 316 316 316 315 317 317 315 317 319 318 318 319 319 318 314 315 319 322 322 321 320 320 321 323 327 328 330 330 330 328 328 328 328 328 328 329 329 329 329 328 328
279 279 279 280 280 281 281 281 282 285 287 289 292 295 295 294 294 295 296 295 297 298 299 300 299 299 299 306 302 303 305 303 303 303 302 307 303 303 303 304 304 308 311 312 314 316 316 316 314 316 316 317 317 318 318 318 318 317 315 313 317 318 320 321 321 321 321 322 322 323 328 328 330 330 330 330 329 329 329 328 329 328 328 328 328
278 278 279 279 279 280 280 280 282 284 285 288 290 292 294 295 295 296 296 295 295 296 297 299 299 298 298 299 305 306 304 304 304 305 306 302 300 304 305 307 308 306 308 311 312 315 315 316 315 315 316 316 316 317 317 317 311 313 310 313 316 317 320 323 321 319 320 321 321 321 324 324 326 327 328 330 330 330 329 329 329 328 328 329 328
277 277 277 278 278 278 279 279 280 282 283 285 287 290 293 295 296 296 295 296 296 295 296 298 298 298 297 297 300 307 308 307 308 307 307 306 305 304 305 306 305 299 304 310 312 313 314 314 315 315 316 316 316 316 317 317 315 307 310 311 315 316 321 322 320 319 320 320 319 320 322 323 323 324 327 329 330 330 330 330 329 329 328 329 328
275 275 276 277 277 277 277 278 279 281 282 283 286 289 292 294 295 295 296 295 295 295 295 296 298 296 296 297 298 304 307 310 309 308 308 307 306 304 305 308 304 301 297 307 301 309 313 314 314 315 315 315 316 316 316 316 315 307 309 309 313 315 316 318 318 319 319 318 317 318 321 323 323 325 327 328 328 330 330 329 329 329 330 328 329
274 274 276 276 276 276 277 278 279 279 281 283 285 287 290 293 294 295 295 295 295 295 295 296 297 297 297 296 296 297 304 308 309 309 307 306 305 305 304 305 304 301 295 301 299 305 302 311 314 314 314 314 315 315 315 316 314 305 307 312 312 312 315 318 320 319 318 318 317 317 317 318 322 323 324 327 328 328 329 328 328 329 329 329 329
273 274 275 275 275 276 276 277 278 279 281 282 284 286 289 293 294 294 294 293 293 294 295 296 297 297 296 296 295 297 300 305 307 308 308 308 307 307 306 301 296 297 298 297 304 306 305 299 312 312 313 312 313 313 314 314 310 305 305 315 315 309 313 316 319 318 317 317 317 316 316 317 319 322 323 323 325 326 327 328 328 328 328 328 328
273 274 274 275 275 275 276 276 278 280 280 280 282 284 288 290 292 292 292 294 293 293 294 295 296 297 297 297 296 297 298 302 305 308 308 309 308 309 308 305 300 296 297 299 302 303 304 304 300 307 310 311 312 313 310 311 312 303 304 315 315 312 311 314 316 317 318 317 316 316 315 316 317 318 319 320 320 320 320 322 323 323 323 324 324
273 273 273 274 274 274 275 276 278 279 279 279 281 284 288 290 291 291 291 292 292 292 293 294 296 297 298 297 297 297 299 301 303 306 307 309 309 309 309 307 305 301 297 297 301 302 301 306 304 301 308 308 311 312 313 313 308 306 313 315 315 315 310 313 315 317 318 317 316 316 315 315 316 317 317 317 317 319 320 321 321 321 322 323 324
273 273 273 273 273 274 274 276 277 277 278 279 281 284 287 289 290 291 291 291 291 292 293 294 295 297 297 298 297 298 299 301 302 303 304 306 308 308 308 308 307 304 302 300 300 304 302 301 301 300 295 305 308 311 313 312 304 308 314 315 315 315 308 310 313 315 316 315 316 317 316 315 315 315 315 316 317 318 320 319 319 320 321 322 325
272 272 272 272 272 273 274 274 275 276 277 278 279 281 283 286 289 290 291 291 291 291 292 293 294 296 297 297 298 298 299 302 303 303 304 304 308 308 308 308 307 307 305 305 300 298 303 302 299 297 300 301 305 309 311 311 305 309 314 314 314 309 305 309 310 313 314 313 315 315 315 315 314 314 314 314 316 318 319 318 318 319 320 321 323
271 271 271 271 272 272 273 274 274 275 276 277 279 280 282 285 288 289 290 290 290 290 291 292 293 294 296 297 298 298 299 302 302 303 304 305 307 308 308 308 307 308 307 306 303 299 301 305 301 299 300 300 303 307 306 307 306 304 312 313 313 303 310 314 309 310 312 313 314 314 314 314 314 314 314 314 316 317 317 317 317 318 319 320 321
271 271 270 271 271 272 272 273 274 274 276 277 278 279 280 283 286 288 289 289 289 290 290 291 292 293 294 296 298 298 299 301 302 303 304 305 305 307 308 308 307 307 306 305 302 297 292 294 299 300 301 302 301 304 303 304 304 307 307 310 310 310 313 314 313 306 309 311 313 313 313 313 314 314 313 313 314 316 316 318 318 317 317 319 320
271 270 270 271 271 272 272 273 274 275 275 276 277 278 280 282 285 288 288 288 288 289 289 289 290 292 293 294 297 299 299 300 303 303 304 304 304 305 306 306 306 306 307 304 301 298 295 292 296 298 300 304 302 301 304 303 303 301 304 305 308 309 312 313 312 311 307 310 311 312 313 312 313 314 313 312 312 314 315 316 315 314 315 317 316
271 270 270 270 271 271 271 272 272 273 274 275 277 278 279 281 285 287 288 288 288 287 287 288 289 291 291 292 295 298 300 300 302 303 304 304 304 305 305 306 306 305 305 304 301 298 295 294 296 296 297 301 302 300 303 304 301 301 302 301 302 304 306 307 309 308 306 309 311 312 311 311 311 312 312 311 311 312 313 313 313 312 313 314 314
270 270 270 270 271 271 271 271 272 273 274 275 277 277 278 278 280 285 287 287 287 287 287 287 288 289 290 291 293 296 299 300 302 303 303 304 304 304 304 304 305 303 302 300 302 300 297 294 293 296 298 300 297 301 302 301 298 298 300 296 296 297 295 299 305 303 305 308 309 309 309 309 309 311 310 310 310 311 311 312 311 311 312 311 311
269 269 269 270 270 271 272 272 273 274 275 275 275 276 277 278 279 281 285 287 287 287 287 287 288 288 289 290 291 294 297 300 301 302 302 302 303 303 302 302 303 302 300 300 299 299 297 295 294 295 298 296 297 298 298 297 296 295 294 296 297 298 296 294 296 302 302 304 305 305 306 307 308 309 310 309 310 310 311 311 311 310 310 310 309
269 269 269 269 270 270 270 271 271 271 272 272 273 274 275 276 278 279 282 285 287 287 286 287 287 288 289 290 291 293 296 298 301 302 302 301 302 303 302 301 301 300 298 297 298 298 298 296 295 292 292 293 293 294 297 298 296 294 292 292 293 293 294 293 293 295 300 302 302 303 302 304 304 307 309 309 309 310 310 310 309 309 307 306 307
268 268 268 269 269 269 269 270 270 271 271 272 273 273 275 276 277 278 280 283 286 286 286 286 287 288 289 290 291 293 294 297 301 302 302 301 302 301 301 301 299 299 297 297 297 297 296 294 295 295 293 293 295 294 295 298 298 297 294 292 292 291 294 296 294 293 295 298 299 301 302 302 302 305 306 307 308 309 309 309 308 307 305 304 305
267 268 268 268 269 269 269 269 270 271 271 272 272 273 274 276 277 278 280 282 285 286 286 286 287 287 288 288 289 291 294 297 301 303 302 302 302 300 301 300 299 298 297 296 296 295 294 294 294 293 294 293 291 293 293 294 295 294 296 297 296 292 292 292 294 295 294 295 297 296 299 301 301 304 305 306 306 308 307 306 305 304 302 304 305
267 267 268 268 268 268 269 269 270 271 271 272 273 274 275 276 277 278 280 283 285 285 285 286 286 286 287 288 289 290 292 292 294 299 300 301 303 300 299 300 298 298 296 295 295 295 294 294 293 294 293 292 292 291 292 294 296 297 297 298 296 293 292 292 292 293 295 296 294 296 296 297 298 300 302 303 305 305 305 304 304 300 301 304 305
267 267 267 268 268 268 268 268 269 270 272 274 276 278 279 277 277 278 279 280 282 284 285 285 286 286 287 287 288 288 289 290 291 294 298 299 299 302 301 300 297 296 295 295 296 295 294 293 293 292 292 292 292 293 295 296 299 296 295 296 294 291 292 292 292 290 291 295 295 295 294 295 298 297 299 303 302 302 304 305 305 303 302 304 305
266 266 267 267 267 268 268 268 268 269 270 271 276 278 280 281 279 279 279 280 281 283 284 284 285 285 286 287 288 288 289 290 292 293 297 298 298 298 298 298 298 297 295 295 295 294 294 294 293 293 293 293 293 295 297 296 295 296 297 297 295 293 293 292 292 289 289 295 294 294 293 292 297 298 298 300 301 301 301 304 303 301 302 304 304
265 266 266 266 267 267 268 268 268 269 270 274 276 278 279 281 281 280 280 280 281 282 284 285 285 286 286 286 287 288 289 291 294 295 296 297 298 298 298 298 297 297 297 297 295 294 294 294 293 294 294 293 294 296 297 296 295 296 296 297 295 294 294 294 294 292 292 293 294 294 293 290 292 298 298 299 299 300 302 304 303 302 303 304 304
265 265 266 266 267 267 267 267 268 269 269 274 276 278 279 281 282 282 280 281 281 282 283 285 285 286 286 286 286 288 289 290 291 296 299 298 297 297 297 296 296 297 298 298 298 296 296 295 294 294 295 295 294 296 297 297 296 295 295 295 295 295 295 295 294 292 291 294 295 293 293 291 292 296 297 297 298 299 301 302 303 302 303 304 303
265 265 266 266 267 267 267 267 268 268 269 273 276 278 279 281 282 282 281 281 282 282 283 284 285 286 286 286 286 286 287 289 293 296 298 300 299 297 297 298 298 297 296 297 296 296 296 296 295 294 297 298 296 297 296 296 295 295 295 295 294 294 294 294 294 293 293 296 296 294 293 291 290 295 296 295 291 293 294 299 302 302 303 303 303
265 265 266 266 267 267 268 268 268 269 270 274 276 278 279 280 282 282 280 281 281 282 283 284 285 286 286 287 286 286 287 288 292 296 298 299 297 296 295 296 297 298 299 299 299 298 298 299 298 298 299 299 300 298 296 296 296 297 297 296 294 294 291 290 290 291 292 295 295 295 293 293 290 294 295 292 290 291 290 297 301 302 303 303 303
266 266 267 267 267 267 268 268 268 269 270 275 276 277 279 280 282 281 280 280 280 281 283 285 286 287 287 287 286 286 287 288 291 295 297 298 295 294 294 295 296 298 299 298 298 298 299 300 300 300 300 300 299 297 295 296 296 294 291 291 291 291 292 293 290 290 292 292 290 293 291 291 290 294 292 288 289 290 289 290 299 301 302 302 302
266 266 266 267 267 267 268 268 268 269 270 273 276 278 279 280 280 279 280 280 281 281 283 286 287 287 287 287 287 287 287 288 291 295 297 296 294 294 294 294 294 295 296 298 297 297 297 298 298 299 299 299 298 298 298 298 296 294 294 293 292 293 294 292 290 290 291 292 290 289 290 290 289 292 287 287 289 289 289 290 292 299 301 302 302
266 267 267 267 268 268 268 268 269 269 270 272 275 277 278 280 280 279 279 280 280 282 284 286 287 286 287 287 287 287 287 288 292 295 297 295 294 293 293 293 293 293 294 296 296 296 296 297 297 297 297 297 297 297 297 297 297 295 295 294 293 294 294 294 290 290 290 290 291 289 291 290 289 289 286 285 287 286 288 288 289 293 299 299 301
266 267 268 268 268 269 269 269 271 271 270 272 276 277 278 280 281 280 280 280 280 281 283 285 286 286 286 287 287 287 288 289 292 295 297 295 294 293 293 293 293 293 294 294 293 292 291 291 292 294 293 294 295 295 294 296 295 294 297 296 294 295 295 294 291 289 288 288 291 289 291 288 289 289 288 286 286 284 283 287 288 290 293 296 298
Wind_Speed
10 9 11 12 11 9 10 10 11 10 11 11 11 12 11 11 12 13 12 12 12 12 11 12 11 11 11 12 12 12 12 12 12 12 12 11 11 14 21 20 23 25 27 29 30 31 31 32 32 30 32 33 31 30 31 30 29 31 31 30 31 31 31 28 26 26 26 26 25 26 25 25 25 25 24 24 24 23 23 23 21 21 20 21 20
9 9 10 11 11 12 10 10 11 10 10 11 11 11 12 11 10 11 12 12 12 13 11 12 13 12 12 12 12 12 12 12 12 12 12 12 12 13 21 20 22 25 26 27 30 33 34 32 29 30 32 31 31 32 33 33 32 31 30 29 32 31 30 29 28 27 24 25 25 25 25 25 25 25 26 24 24 24 23 22 21 22 21 21 20
9 9 8 10 10 10 11 10 10 10 10 11 11 12 12 12 12 11 10 11 12 11 11 13 13 13 13 13 12 11 11 11 12 12 12 12 12 12 16 23 22 24 25 26 27 29 27 25 33 32 29 32 33 35 34 32 33 31 31 31 30 31 31 29 27 26 26 25 25 24 24 25 25 25 25 26 25 23 23 22 22 22 21 21 20
9 10 9 10 9 10 10 10 11 9 10 10 12 12 13 13 15 15 14 11 10 11 12 12 12 13 12 13 12 12 12 11 12 12 12 12 12 12 12 15 22 24 25 26 27 27 26 29 29 28 31 33 35 35 34 33 32 30 29 30 32 33 32 30 29 26 25 25 25 24 24 25 27 26 26 25 24 23 22 22 23 22 21 20 20
9 11 11 9 9 10 10 10 9 11 10 11 13 12 12 13 14 14 14 12 12 12 11 11 13 13 12 13 11 13 12 11 11 12 13 13 13 12 12 13 14 22 26 25 27 27 24 25 28 32 32 30 31 36 36 36 33 34 34 32 30 31 31 32 28 26 25 26 26 26 26 26 27 27 26 25 24 23 23 23 22 23 21 21 20
10 11 10 9 10 11 11 10 9 10 11 10 10 10 12 14 15 14 14 13 13 13 12 12 12 12 12 13 12 13 11 12 12 12 12 13 13 13 13 12 13 14 17 25 26 25 23 22 24 29 30 29 31 35 39 36 36 33 33 34 33 33 33 31 32 29 29 27 26 27 27 27 27 26 26 26 25 25 24 22 22 23 22 22 22
12 12 11 10 11 11 11 10 9 9 10 10 9 10 10 13 13 14 15 15 13 14 14 14 14 14 14 12 12 13 12 13 12 13 13 12 13 14 14 13 13 14 15 15 21 26 24 24 23 24 27 29 32 36 39 37 36 36 32 31 34 34 33 32 31 31 30 29 27 27 27 27 27 26 27 26 25 25 24 24 24 24 23 22 22
13 12 12 12 12 12 11 10 10 9 8 9 9 10 11 11 13 13 15 16 15 14 12 14 14 15 13 12 12 12 13 13 13 13 13 11 11 14 14 15 15 14 15 14 14 17 24 23 25 27 26 33 35 33 36 39 37 36 36 34 32 32 32 32 31 31 30 28 27 26 27 27 28 28 28 26 25 25 25 25 24 24 24 24 24
13 12 12 13 12 12 11 12 10 10 9 7 9 9 10 11 13 13 14 16 17 16 15 15 16 15 14 14 13 12 13 13 14 13 13 14 13 13 13 14 16 17 15 14 13 12 18 23 25 29 26 28 30 32 34 36 37 34 35 32 34 35 33 30 30 30 30 29 29 28 28 28 27 28 27 26 27 26 26 26 25 25 24 25 25
16 14 12 13 12 13 13 12 11 10 9 8 8 9 10 10 13 13 13 15 16 18 14 13 13 14 14 15 14 13 13 12 12 13 13 15 15 15 15 14 14 15 15 14 14 12 11 18 24 26 27 24 27 32 33 36 36 38 36 36 33 34 33 31 30 30 31 30 29 29 29 28 28 27 29 29 27 27 26 26 26 25 25 26 25
17 16 14 13 12 12 12 12 11 10 9 9 9 8 10 10 12 15 15 15 17 18 16 15 16 14 14 16 15 15 13 12 11 12 14 15 15 15 13 14 14 15 15 14 13 12 12 10 11 13 18 32 29 33 31 35 33 33 36 38 37 35 33 32 32 32 31 30 31 30 30 29 29 28 28 30 30 27 28 27 26 25 25 26 25
16 17 15 14 13 12 13 12 11 10 10 10 9 9 9 12 13 14 17 17 15 15 14 13 14 16 16 15 15 15 15 13 14 13 13 15 14 13 13 14 14 15 15 14 13 13 13 13 12 11 13 24 36 33 36 35 32 33 38 37 36 35 35 34 33 33 33 32 32 31 31 30 29 29 29 28 30 28 27 27 27 26 26 26 25
17 18 19 17 14 13 13 12 11 10 10 10 10 10 9 9 11 11 14 17 15 15 15 14 13 13 12 13 11 9 12 14 14 14 13 13 15 14 14 12 14 15 14 12 13 13 13 14 13 12 12 16 22 32 32 32 31 34 38 38 40 39 38 36 34 33 34 33 32 32 32 31 30 30 29 29 29 28 27 26 26 26 27 26 26
16 19 18 18 17 16 14 13 12 10 10 10 9 8 8 8 9 12 10 13 15 13 14 15 14 13 7 2 1 0 2 8 15 14 14 10 9 17 16 14 14 14 12 11 12 13 13 12 13 13 13 11 17 23 21 22 28 34 39 39 40 39 38 38 37 35 36 33 32 33 32 31 30 31 31 30 29 28 27 27 27 26 26 26 27
16 17 16 16 16 17 16 13 11 10 11 11 9 9 7 8 9 10 14 11 12 13 14 15 13 11 12 8 6 5 2 4 7 13 13 10 8 9 17 17 15 13 12 11 11 11 12 12 13 14 12 15 7 14 21 23 24 34 33 33 36 39 39 39 38 35 34 33 33 34 32 33 31 31 31 30 30 29 28 27 27 27 27 26 26
14 15 15 16 16 17 16 14 14 12 12 12 11 10 8 7 7 9 11 15 11 14 13 15 16 11 10 12 10 12 9 10 11 7 8 12 10 10 9 15 15 12 11 14 11 10 11 11 13 10 13 10 10 3 15 18 28 28 26 27 33 37 40 40 39 37 35 34 34 33 32 31 33 35 31 31 30 29 29 29 27 27 26 27 27
14 15 16 16 16 17 17 17 16 15 12 11 11 11 9 7 8 9 9 11 15 12 15 14 18 18 12 6 4 9 14 11 12 4 2 10 12 9 7 9 13 12 11 9 9 9 10 11 11 10 8 10 9 7 3 12 19 19 22 24 28 32 36 40 39 37 36 35 34 33 34 33 34 32 32 32 32 30 29 29 27 26 26 25 26
14 14 14 14 14 17 17 18 17 14 12 12 11 9 7 8 8 7 10 10 12 13 15 15 16 18 20 17 14 11 15 12 16 9 1 1 10 12 11 10 10 11 9 9 10 9 8 10 11 12 10 9 11 12 7 10 12 14 15 18 27 29 31 35 39 38 37 35 34 33 32 32 31 32 32 30 28 30 30 29 28 26 26 26 24
12 10 13 14 16 15 15 16 16 15 13 12 11 10 9 8 7 7 8 8 10 13 15 15 15 17 17 18 13 4 5 13 13 7 6 2 3 10 12 12 11 13 13 12 13 11 9 8 12 12 13 9 12 13 12 12 15 15 22 25 25 27 28 29 32 33 34 36 36 35 36 32 32 32 31 31 31 29 29 29 27 27 26 25 24
12 13 12 15 15 15 15 13 13 14 14 13 13 12 9 7 7 8 8 7 9 11 13 13 12 17 15 15 15 6 9 19 20 20 16 14 7 0 4 11 10 10 12 14 13 13 12 8 12 11 11 14 10 12 11 13 11 13 15 25 27 27 27 29 29 28 30 32 34 34 33 34 33 33 31 30 30 29 29 29 29 28 27 25 26
12 12 13 14 15 15 13 13 12 13 13 14 13 14 13 10 8 7 6 7 7 10 11 13 12 14 16 16 7 9 12 13 11 3 12 13 10 12 9 4 9 9 11 14 14 14 14 11 13 16 11 14 15 12 10 11 11 12 15 23 25 26 25 27 27 27 27 27 31 32 32 32 32 34 31 30 29 29 29 28 27 27 26 26 26
11 12 12 13 15 15 14 15 15 13 12 15 16 15 13 10 10 8 7 7 7 10 12 13 11 12 12 18 10 7 9 7 7 9 6 14 17 16 13 14 14 11 10 12 15 15 14 13 8 16 12 10 14 13 12 12 12 12 17 24 22 21 22 24 25 23 23 23 24 26 29 30 32 31 30 31 30 29 29 27 27 26 26 26 25
12 11 12 13 13 14 13 13 14 13 13 15 14 14 14 12 9 8 8 7 6 10 13 13 12 11 12 14 15 14 13 15 14 14 16 12 8 12 14 15 16 14 10 10 11 13 13 14 11 11 13 11 11 14 12 12 15 16 23 24 25 23 24 25 25 23 22 21 23 23 25 26 28 31 33 33 30 29 29 28 26 26 26 25 25
10 12 9 11 11 11 14 14 13 12 14 12 14 16 15 15 10 8 7 6 6 8 11 13 14 11 10 11 16 14 13 16 16 16 15 15 17 17 14 10 6 2 4 10 9 11 11 13 15 13 14 13 11 11 14 15 14 23 21 26 25 24 24 24 24 23 21 21 22 23 23 23 24 25 28 30 30 30 29 28 27 27 28 25 24
13 10 12 12 12 12 12 14 13 11 13 13 14 16 16 15 12 9 8 7 6 8 10 12 13 11 10 10 13 16 13 13 14 15 13 12 12 14 11 13 13 8 4 10 6 8 11 11 15 14 13 14 14 13 12 13 13 20 22 21 27 26 27 25 23 22 21 20 22 23 24 24 25 23 25 28 31 30 29 28 28 28 27 26 25
13 15 12 12 14 13 14 14 14 15 15 15 14 16 17 16 14 11 9 7 6 8 10 12 12 13 9 10 11 15 17 11 12 15 16 15 15 17 14 8 6 8 4 6 4 9 3 9 12 14 14 14 14 13 13 15 15 22 22 18 22 24 25 26 27 25 23 23 22 23 22 22 21 23 24 27 28 29 28 26 26 25 25 24 25
15 11 14 15 15 13 17 14 15 16 13 13 14 15 17 16 12 12 9 7 7 8 8 10 13 12 10 10 12 15 17 13 10 14 13 16 18 18 18 17 8 5 5 2 9 12 12 4 11 13 15 14 14 14 14 13 17 25 23 18 16 25 24 27 26 24 23 23 24 23 22 22 23 24 24 23 24 25 27 27 26 25 25 24 23
15 13 15 14 14 16 16 16 15 13 13 14 14 15 15 16 13 11 10 7 7 7 8 9 12 13 11 10 10 14 16 16 12 11 12 14 13 13 16 20 20 12 7 9 9 6 7 9 1 7 13 14 14 15 16 18 16 23 22 15 15 17 24 25 26 25 24 23 23 23 23 23 22 22 22 22 22 21 21 21 22 20 19 19 19
12 14 16 13 14 15 14 16 14 11 12 13 14 14 16 14 13 12 11 9 8 7 7 8 9 10 10 10 10 12 14 16 12 11 11 13 16 16 16 19 20 20 14 13 13 11 8 10 13 5 11 13 13 12 15 14 17 20 16 15 16 14 21 26 26 26 24 25 23 22 22 21 20 19 19 18 17 17 16 17 18 18 19 18 20
13 13 12 14 14 16 15 14 11 12 13 14 14 14 14 13 13 12 10 9 8 6 6 7 8 10 10 10 9 11 12 15 12 8 8 11 13 15 16 14 17 21 17 17 12 9 12 7 4 9 4 11 11 14 15 14 20 21 15 15 15 15 22 24 25 25 24 23 23 22 21 20 19 19 18 18 17 16 16 17 17 18 20 21 19
14 13 12 15 13 15 14 13 13 13 15 13 14 11 13 14 13 11 10 10 8 7 6 6 7 9 11 11 10 10 12 14 12 8 8 8 13 15 15 15 15 18 19 17 15 5 9 13 4 4 13 10 11 12 13 13 19 21 16 15 15 19 24 21 24 24 24 23 22 21 21 20 19 19 19 18 19 19 17 18 19 19 19 18 18
14 13 13 13 15 14 14 12 14 13 12 13 10 10 12 13 12 11 10 10 9 8 7 6 6 8 11 12 11 10 11 11 12 10 11 10 11 13 14 13 14 15 16 16 18 15 8 12 11 10 11 12 12 13 12 11 17 22 15 15 16 20 17 15 23 24 23 23 22 21 21 20 19 19 19 19 20 21 19 19 20 20 19 19 19
13 13 14 13 15 14 15 12 13 13 13 13 11 10 10 13 12 12 11 10 9 8 6 7 6 8 10 12 12 11 10 12 11 11 11 11 11 12 14 14 14 12 12 15 16 10 4 3 9 12 12 14 11 12 14 13 14 13 15 14 15 15 15 14 16 22 23 23 22 22 21 20 20 19 18 18 18 20 19 20 22 21 19 19 20
12 13 14 13 13 14 13 14 12 12 14 14 14 10 11 12 14 12 11 10 9 8 6 7 7 7 9 12 12 11 10 13 13 14 14 13 13 14 13 13 13 13 13 13 14 17 13 4 8 7 12 16 15 13 17 16 16 10 12 12 13 15 14 13 13 14 24 22 22 23 21 20 19 19 19 18 18 19 20 20 21 21 19 19 20
13 10 13 12 14 13 15 15 15 14 13 14 12 10 11 14 15 13 11 10 9 8 7 7 7 7 9 11 13 11 9 12 14 15 16 15 14 16 16 14 14 13 12 12 15 15 17 11 11 13 11 12 15 15 16 17 15 13 14 12 13 11 11 12 12 11 20 22 23 22 21 20 20 20 19 18 17 19 20 20 21 21 20 20 20
16 15 11 12 13 13 14 14 13 14 14 13 11 10 10 12 15 15 11 10 9 8 7 7 7 7 9 10 12 12 10 12 15 14 14 16 15 14 16 14 15 13 9 10 15 17 15 15 9 14 14 14 6 12 12 13 15 12 13 9 9 10 7 9 13 11 16 23 23 22 21 20 18 18 18 18 17 18 19 19 20 21 21 21 21
18 16 17 15 16 15 14 13 13 11 11 11 11 11 10 10 12 14 13 10 9 9 7 7 7 8 9 10 11 11 12 12 14 16 13 18 17 16 15 12 13 12 9 11 12 14 16 17 13 7 10 7 9 12 14 14 10 9 8 13 13 13 11 7 7 11 17 21 22 22 21 19 19 18 17 17 17 18 19 19 20 21 21 21 21
20 18 18 16 15 17 17 16 15 16 15 15 15 12 13 10 11 12 13 13 10 9 8 7 7 7 9 10 10 11 12 13 15 15 17 18 16 17 17 14 13 12 12 11 13 14 17 17 17 11 6 10 9 10 13 16 14 12 8 7 8 9 10 7 6 7 8 10 10 12 14 17 17 18 17 16 17 18 19 20 20 21 22 22 22
20 19 18 18 16 16 17 16 16 15 14 16 15 15 12 13 11 13 12 13 12 9 8 8 7 7 8 9 11 11 12 14 15 17 17 19 16 17 18 17 13 14 13 13 14 15 14 15 14 18 14 7 15 15 10 14 17 16 16 12 9 5 9 13 10 3 5 7 10 15 14 12 13 12 15 17 18 19 20 21 21 21 22 23 23
18 19 18 18 17 16 16 16 16 15 15 14 14 13 13 11 9 11 11 12 13 11 9 8 8 8 8 9 11 12 13 14 14 15 18 18 17 15 14 14 15 16 14 13 14 14 13 14 14 12 14 12 1 6 10 10 12 9 12 15 17 12 10 8 8 12 5 8 8 6 8 11 12 14 16 17 18 19 20 20 22 22 23 23 23
17 18 18 18 19 18 17 17 16 15 16 16 12 10 9 11 9 11 12 12 10 9 9 9 9 9 9 9 10 12 13 17 21 18 18 20 17 16 14 14 15 16 14 14 14 14 14 14 13 13 12 12 12 13 14 14 18 19 15 14 12 7 8 8 3 1 7 10 6 8 8 8 8 7 7 8 10 16 18 21 19 24 23 23 24
17 17 18 18 18 18 18 17 15 14 14 13 16 24 20 13 11 10 10 11 12 11 11 10 10 9 10 9 10 15 18 20 22 21 23 23 22 19 18 17 17 16 17 16 16 15 16 15 15 14 15 14 15 18 19 18 13 11 12 13 14 10 9 7 3 1 3 9 11 10 7 6 9 8 9 11 9 12 10 12 12 16 21 25 25
18 18 17 19 17 16 17 16 16 14 13 14 26 25 24 26 18 13 11 11 11 12 11 11 11 10 9 9 9 12 14 16 16 19 24 26 24 22 24 24 21 20 18 19 17 18 18 17 16 17 18 19 19 19 18 16 13 18 18 15 15 14 16 16 14 2 3 8 8 8 6 4 8 10 9 9 10 10 10 13 19 23 24 24 24
18 17 18 17 17 16 15 16 16 15 14 19 25 26 26 26 23 15 12 11 11 11 11 11 10 9 9 9 8 9 11 12 13 12 20 26 26 25 26 26 27 28 27 22 19 17 18 17 17 19 19 20 19 17 16 17 16 14 15 15 16 18 16 16 13 13 7 8 10 9 7 3 4 9 10 10 10 11 13 17 22 22 23 24 24
18 18 18 18 17 15 15 16 16 16 15 20 24 26 25 25 25 21 13 12 11 11 12 11 10 9 8 8 9 9 10 16 15 13 14 20 25 28 28 28 27 27 28 30 29 24 18 20 21 20 20 20 20 18 20 21 19 19 16 16 16 16 15 16 12 9 9 11 10 10 11 5 5 9 9 9 10 10 12 16 20 21 22 24 24
16 16 17 18 17 16 15 15 16 16 16 19 24 25 24 24 24 21 13 12 12 12 13 12 11 10 9 9 9 10 9 11 12 13 14 17 19 20 22 20 19 22 24 25 28 29 26 20 20 21 18 20 22 21 18 19 22 21 19 19 17 16 16 15 10 9 9 11 14 10 6 6 6 9 11 7 5 6 7 11 19 22 23 24 23
15 15 15 16 15 14 14 14 14 15 14 23 24 24 24 24 25 21 13 11 11 11 11 12 12 11 10 9 9 9 10 12 12 13 13 15 17 17 17 18 19 19 19 19 20 20 19 18 22 21 18 19 21 20 16 17 23 21 20 19 17 12 9 10 9 6 9 10 8 13 14 11 6 9 9 7 6 5 4 8 17 20 22 23 23
13 13 14 14 15 15 14 14 14 16 15 24 25 25 25 24 24 14 12 11 12 13 13 12 12 10 10 9 9 9 11 13 16 19 17 14 16 20 20 18 17 17 17 19 23 24 22 19 19 20 19 18 15 20 21 18 14 11 12 12 12 12 13 12 10 7 11 8 4 7 5 9 8 11 7 4 5 7 4 4 10 17 19 21 22
14 12 13 13 13 14 14 13 14 15 15 20 23 23 23 23 19 12 11 10 11 13 14 12 11 11 10 10 9 10 11 13 16 19 20 20 15 20 20 19 17 15 15 14 19 22 24 23 22 24 24 23 23 26 29 28 20 17 16 16 16 16 16 14 10 10 11 10 6 5 6 10 8 7 6 3 6 6 6 6 5 13 17 17 19
17 14 13 13 13 13 14 14 13 14 14 18 24 24 23 23 19 13 11 11 12 12 12 11 10 10 11 15 13 11 12 14 17 18 21 19 17 19 19 20 18 17 15 12 11 11 18 23 25 23 23 24 25 24 25 27 28 23 21 22 20 17 18 17 16 13 8 8 8 6 9 9 9 6 8 4 4 1 4 4 4 6 12 13 17
17 16 13 11 13 13 13 14 20 19 14 16 22 24 25 24 18 11 11 11 12 12 11 10 9 8 9 11 16 15 15 16 22 19 21 19 16 18 19 19 19 19 17 15 15 13 8 5 5 12 14 18 18 17 17 24 27 25 22 21 16 17 17 15 13 10 8 9 11 9 10 8 13 9 11 7 5 1 1 4 5 5 7 9 11
Wind_Direction
312 312 316 317 314 312 311 308 307 306 308 301 296 291 277 262 253 246 237 233 230 229 227 228 224 221 220 220 216 215 216 216 214 212 209 210 211 215 214 217 216 214 210 209 214 217 212 211 204 199 200 200 187 184 180 182 178 172 169 169 167 161 160 160 159 161 159 156 156 157 155 155 153 148 151 154 155 153 152 150 148 147 147 147 146
299 305 310 307 310 310 308 306 306 307 305 302 302 293 288 279 263 254 247 237 230 226 222 226 224 222 220 221 218 217 214 214 212 211 210 208 210 215 215 213 218 217 213 210 213 216 213 212 207 202 203 202 191 187 183 179 181 175 167 171 167 161 160 161 161 163 157 155 156 158 159 157 154 151 155 155 154 154 152 151 148 148 149 147 149
292 296 297 299 300 303 304 306 303 304 302 299 299 296 292 282 273 265 258 243 236 228 220 224 223 222 219 219 219 216 217 215 215 212 210 208 209 213 215 214 214 219 216 214 214 214 213 211 210 206 200 199 193 188 184 183 179 179 170 170 165 162 161 161 163 160 158 156 154 155 159 158 151 153 156 155 154 153 152 147 149 150 147 147 145
286 292 293 294 293 296 296 299 300 299 299 297 299 300 298 291 279 268 260 258 257 243 224 223 223 223 218 219 217 216 215 215 215 211 210 208 206 211 213 214 217 218 219 218 218 220 213 208 215 213 204 193 187 184 181 181 177 182 179 167 166 166 162 162 164 161 159 156 156 158 159 155 154 156 157 156 154 153 153 153 152 147 146 142 148
288 287 289 285 288 290 292 292 294 298 298 299 300 301 302 299 291 278 260 249 246 247 240 229 225 222 217 220 216 218 214 212 215 211 209 207 206 207 212 212 214 221 222 221 222 220 214 203 209 211 210 200 197 186 182 178 179 177 171 170 167 165 162 164 163 160 158 157 158 158 160 158 156 157 156 156 155 152 153 155 150 148 147 148 148
290 289 284 284 290 288 284 282 286 294 296 298 300 304 302 301 298 292 272 256 249 241 235 230 229 224 219 219 215 217 213 213 212 211 209 208 205 205 208 210 212 213 220 223 222 219 211 200 203 207 206 204 196 190 180 177 177 176 172 169 169 167 164 165 163 161 162 159 163 162 161 160 159 156 156 157 156 156 157 157 153 148 148 151 156
291 287 283 284 287 286 281 279 277 281 291 293 297 299 295 295 297 294 285 264 247 243 237 233 228 222 219 215 215 216 212 214 211 209 208 210 206 203 204 207 211 211 213 215 219 215 208 201 198 211 212 202 200 191 177 181 178 175 169 168 165 167 165 165 161 163 166 166 165 163 162 161 157 156 158 157 157 158 159 158 154 149 154 157 147
292 285 286 288 287 282 279 277 278 278 276 287 294 294 298 295 292 290 288 277 260 249 239 237 230 226 219 217 218 213 213 211 210 211 206 206 209 206 199 204 207 211 209 211 210 211 206 200 195 208 213 205 192 185 174 176 177 172 168 168 165 166 166 167 161 163 164 164 164 164 163 159 160 159 158 158 157 159 160 156 152 153 156 148 144
289 281 279 283 285 282 276 274 274 275 275 275 284 290 293 296 294 290 283 279 269 250 240 233 228 224 219 215 215 213 214 210 208 207 204 206 209 207 202 202 204 206 207 206 205 204 204 200 196 197 210 200 189 183 177 176 175 172 170 168 167 167 165 166 168 165 165 166 165 164 162 162 160 159 160 160 161 162 160 155 153 157 154 148 144
301 290 281 277 277 279 276 273 272 270 270 273 276 284 289 291 294 293 291 283 272 256 240 237 234 224 217 214 215 210 213 211 205 200 201 205 204 206 205 200 200 203 203 202 201 197 198 205 198 197 199 201 195 187 180 177 176 172 166 168 167 166 164 168 168 166 165 164 164 164 164 162 160 160 162 161 162 161 158 156 157 157 153 151 151
301 297 287 281 276 273 273 271 269 266 265 270 278 282 287 291 293 296 293 285 277 262 242 231 231 229 221 217 211 210 209 206 203 200 202 203 203 204 202 202 199 201 200 198 197 193 191 190 201 203 196 189 193 189 184 178 176 170 167 168 168 168 165 166 169 168 165 163 165 165 165 163 161 161 162 162 162 159 158 157 158 157 154 153 153
313 308 295 286 280 275 272 270 265 258 259 267 274 280 286 295 296 296 296 292 282 272 253 234 232 228 221 220 211 208 209 204 201 204 202 201 201 197 203 202 200 198 198 195 191 188 190 189 195 201 193 197 186 186 180 180 172 171 171 167 167 167 167 171 169 167 166 165 166 165 165 162 163 163 163 162 161 160 157 157 158 158 156 155 154
318 316 311 307 297 286 278 271 261 254 253 258 263 272 276 282 289 289 291 290 282 272 262 246 234 234 224 216 213 215 212 204 205 200 207 206 197 195 197 199 200 195 195 190 188 187 189 189 190 188 195 183 189 182 181 171 169 170 171 171 168 167 170 171 169 167 166 165 166 166 165 164 164 164 163 161 161 159 159 159 161 159 158 157 156
315 312 305 300 299 297 286 274 264 254 254 257 262 261 271 277 288 293 280 281 282 276 269 247 231 218 187 231 297 335 260 224 202 204 199 208 217 192 189 195 196 192 187 187 185 185 188 187 190 191 190 211 189 175 173 170 169 172 173 173 169 168 170 169 168 166 166 165 167 168 166 165 164 164 163 163 160 160 160 161 161 161 159 157 158
309 305 303 300 297 297 292 281 266 259 263 262 256 261 262 273 281 285 295 281 274 275 275 254 238 210 206 170 191 165 268 231 226 200 195 192 184 208 187 183 188 186 182 182 183 183 183 184 187 189 199 193 221 188 167 167 171 172 173 170 170 168 169 168 167 166 167 166 167 168 166 166 165 165 164 162 162 163 161 161 162 162 159 157 158
301 304 307 307 305 303 299 290 279 270 261 261 258 258 261 266 271 277 284 292 283 283 273 263 245 206 209 199 186 188 194 212 189 217 205 186 190 185 193 180 173 173 176 183 174 172 177 173 177 188 188 196 156 254 176 166 163 166 171 173 167 167 169 167 166 166 166 166 168 168 167 166 166 165 164 164 164 163 162 161 163 162 160 159 160
307 306 302 302 302 301 301 298 290 277 264 256 254 253 253 253 264 274 274 282 289 283 281 273 259 226 199 191 153 197 204 186 177 205 207 187 192 188 188 181 167 167 171 171 159 164 161 165 162 153 173 161 156 144 210 156 157 161 163 170 172 168 166 166 165 164 165 167 168 169 169 167 166 165 165 165 164 163 162 163 163 161 163 162 160
297 292 296 304 303 301 299 298 296 287 271 259 256 249 248 254 252 260 272 272 278 283 281 278 272 260 223 205 185 195 192 179 167 195 319 241 190 187 181 182 167 158 164 164 161 151 159 159 159 153 151 158 148 140 163 159 158 157 154 166 170 168 165 164 163 164 166 168 169 170 170 168 167 166 166 165 165 164 163 162 163 163 164 162 162
294 300 307 303 301 297 297 297 298 297 284 268 256 247 246 242 248 251 262 272 277 278 276 279 286 269 246 222 203 215 219 150 193 106 167 271 208 177 184 182 174 169 166 170 167 156 154 162 161 158 149 152 153 145 156 164 163 157 156 160 164 165 163 161 162 164 168 169 170 171 170 169 168 167 166 166 166 165 164 164 165 165 166 166 165
300 302 301 301 301 296 292 294 304 305 298 282 270 261 249 243 239 245 257 263 270 272 278 277 272 281 266 241 214 203 197 190 178 177 169 169 189 223 168 173 169 179 171 167 166 159 154 176 160 159 156 150 150 145 153 155 155 153 150 157 158 163 163 160 163 165 169 171 170 171 171 169 168 167 167 167 167 166 164 165 166 166 166 167 167
294 298 300 300 298 294 299 306 306 303 299 291 277 261 246 242 242 244 246 263 273 276 273 272 268 267 282 257 265 198 187 197 176 134 171 153 171 171 169 156 166 175 177 171 167 162 159 167 173 153 161 154 150 144 146 150 149 154 152 154 159 161 162 160 163 168 170 170 169 170 171 170 169 168 168 168 167 166 166 167 167 166 166 168 169
297 293 296 295 297 301 303 302 300 298 300 300 295 275 253 241 238 239 240 255 265 273 273 273 268 268 271 276 229 210 178 181 189 149 166 181 167 173 166 164 170 180 169 174 165 162 159 150 179 150 149 155 148 144 151 155 156 155 155 155 158 159 158 158 157 161 167 170 169 171 172 171 170 169 169 168 167 167 168 169 168 167 167 169 169
299 295 290 292 293 296 298 298 298 296 299 302 299 289 273 258 242 238 238 246 257 272 274 271 268 264 268 278 261 206 185 182 183 184 168 168 171 173 163 173 173 164 178 168 164 160 157 151 162 146 145 156 150 144 155 157 157 155 157 156 157 158 157 158 159 164 170 170 170 173 174 171 170 170 170 169 168 167 168 168 167 167 168 169 169
293 293 292 292 292 295 299 298 295 298 298 298 299 297 286 269 251 239 238 236 253 267 272 275 270 269 270 270 278 259 204 189 188 183 179 179 170 169 168 155 121 70 139 155 161 158 161 163 157 157 158 154 155 154 158 156 161 159 159 159 158 158 159 159 162 165 172 172 171 171 175 174 172 174 172 169 168 168 169 170 169 170 171 171 171
298 294 295 295 298 298 299 296 297 296 297 296 292 291 287 273 262 244 231 235 239 257 273 272 273 267 267 268 275 286 251 206 183 184 182 171 165 158 164 160 157 151 152 156 158 161 162 172 158 159 160 157 157 160 159 158 157 163 161 162 160 162 160 160 162 167 173 175 172 175 177 179 181 174 172 171 171 172 171 170 173 174 174 173 175
299 297 300 301 296 291 290 290 290 293 291 287 291 296 291 276 258 249 238 226 234 249 262 270 269 264 260 272 273 278 278 243 196 189 180 165 166 165 155 164 140 138 122 139 149 146 174 173 165 158 157 159 159 160 163 158 155 164 162 161 164 164 163 161 165 171 173 176 176 179 178 178 177 174 176 173 174 174 173 172 174 176 175 176 179
296 298 296 291 287 287 290 287 288 285 284 294 297 294 291 280 258 253 244 230 232 247 257 266 268 261 257 256 269 274 280 270 226 197 182 172 168 166 159 151 127 133 142 122 157 180 156 153 167 161 160 160 162 162 162 161 160 165 162 160 166 167 165 165 166 172 173 175 177 179 178 180 181 177 176 175 174 176 174 173 176 177 176 177 178
293 289 290 288 289 289 288 283 281 281 292 294 294 292 287 284 270 255 250 233 233 241 255 264 269 268 261 260 263 269 274 273 244 204 189 167 161 164 168 160 153 157 158 156 167 165 156 139 43 171 163 161 166 161 159 156 160 164 160 161 163 169 168 167 168 170 173 176 176 177 179 183 182 179 176 176 176 175 175 173 175 174 170 171 167
288 294 290 285 284 286 286 287 282 283 292 291 288 286 285 282 268 255 249 242 231 236 248 261 270 269 263 256 254 263 271 269 246 217 202 179 165 169 174 170 165 156 162 164 178 158 189 173 156 212 174 165 162 160 156 159 163 164 165 162 164 168 172 169 169 170 174 174 176 177 179 179 179 177 174 172 168 172 176 174 171 164 163 165 164
290 289 290 290 287 286 283 281 286 294 291 288 289 293 296 287 274 259 253 250 243 234 241 256 266 271 263 255 250 256 260 264 241 221 200 175 166 169 175 179 168 162 165 168 175 175 160 172 168 150 175 165 164 164 161 163 162 164 163 162 165 169 171 169 169 170 172 172 175 176 175 174 175 171 168 167 169 176 178 174 166 162 164 171 172
288 289 288 287 282 279 280 284 288 287 286 283 285 287 287 286 280 268 259 255 250 246 243 251 266 273 267 255 248 249 255 258 233 203 191 183 175 170 175 171 177 172 168 170 160 187 161 164 155 166 158 161 163 163 161 159 165 166 163 165 168 168 167 168 169 170 171 171 174 175 174 173 172 171 170 169 172 177 178 169 163 164 169 172 166
287 283 285 283 284 281 281 280 281 281 278 276 276 284 288 284 279 269 261 256 255 252 254 250 261 269 274 268 253 247 254 255 232 200 188 181 178 171 171 175 182 182 171 167 167 163 183 165 150 148 155 148 155 159 157 159 168 168 163 164 166 162 164 168 170 170 171 171 174 175 174 174 174 173 174 173 175 177 175 167 167 169 170 168 164
288 284 285 284 282 282 278 274 275 277 275 278 282 283 284 282 275 264 256 254 253 256 252 262 263 270 273 271 264 251 251 253 231 204 185 181 181 182 177 173 176 177 176 168 160 135 51 87 139 152 158 147 153 161 153 155 166 171 164 162 161 165 168 168 170 171 171 173 173 174 176 177 177 176 176 177 178 180 176 168 168 170 167 164 162
284 285 283 282 282 276 275 275 276 276 278 280 281 282 280 280 273 264 249 245 246 251 252 262 265 267 274 276 270 255 245 252 239 208 181 180 184 183 181 178 177 177 179 164 154 154 150 116 127 141 155 166 155 167 157 159 165 160 161 160 164 168 167 164 166 172 172 172 172 173 175 177 178 178 181 178 180 181 177 167 164 166 164 163 160
287 279 284 280 277 277 278 278 279 276 275 274 273 275 283 288 284 268 248 239 237 242 248 255 262 267 273 275 277 270 245 249 239 215 185 179 182 185 184 182 184 179 171 160 152 154 150 152 150 152 162 172 163 169 167 162 158 157 153 160 160 167 165 161 164 167 173 171 172 173 175 179 177 178 181 178 177 178 173 166 164 165 163 160 158
300 296 280 280 275 269 267 268 266 266 264 265 271 274 281 285 291 286 258 242 235 237 241 253 262 267 269 277 278 279 267 252 239 219 196 177 181 188 185 184 180 173 163 153 161 152 157 141 168 160 167 161 171 160 154 149 149 154 157 149 146 147 149 163 162 162 176 173 173 175 175 177 177 175 178 177 176 175 169 167 165 164 162 160 159
298 298 294 292 290 287 279 273 273 274 282 285 283 281 277 278 284 288 284 264 248 245 243 248 259 267 271 271 276 278 279 262 243 212 197 184 180 179 181 183 177 167 157 154 155 151 151 155 152 152 156 145 148 156 150 145 146 135 136 154 163 160 159 163 151 169 169 176 174 173 176 175 175 178 176 175 175 173 169 168 167 165 162 160 160
299 299 295 290 290 288 287 288 290 289 285 280 277 276 278 277 278 282 286 283 265 254 249 250 257 262 271 273 274 274 272 266 246 215 192 186 183 177 178 180 172 161 156 153 150 158 156 155 149 139 154 145 142 156 163 150 150 142 138 138 136 147 150 147 171 165 174 169 169 174 172 172 172 176 174 177 175 174 169 168 168 166 162 160 160
298 296 295 290 284 283 281 279 277 274 272 270 271 271 269 269 270 275 278 281 272 257 250 250 250 259 266 272 274 270 268 265 252 215 196 181 183 183 177 174 168 161 158 155 154 153 152 150 158 155 154 176 160 156 173 162 158 158 153 145 157 162 166 164 161 142 159 155 181 169 165 163 168 172 178 177 178 175 172 168 168 166 163 162 162
299 293 294 292 287 283 282 280 280 279 273 267 262 261 261 259 258 263 269 268 265 257 253 248 247 251 258 266 271 271 269 270 261 223 196 182 178 180 179 169 166 162 159 155 151 150 152 154 155 159 154 149 99 119 134 143 142 148 162 162 169 171 174 166 164 156 175 156 159 161 154 156 164 175 178 180 179 177 172 168 168 167 165 164 164
293 291 290 291 289 286 283 280 279 275 271 268 265 255 248 251 248 252 259 265 262 259 256 253 249 249 253 260 265 270 270 274 271 240 207 182 174 176 173 168 166 162 158 157 156 154 156 156 156 153 152 151 152 148 152 163 171 174 175 163 157 154 140 133 92 202 170 161 166 145 157 158 148 164 162 171 184 177 175 171 171 169 168 167 167
294 291 290 287 285 283 282 280 276 275 273 270 267 265 261 258 255 253 254 257 261 260 257 257 256 249 253 259 267 274 277 277 278 259 212 185 178 176 170 171 168 164 162 161 161 160 157 159 159 157 156 165 163 170 170 178 168 132 144 155 151 154 145 133 104 183 224 159 154 161 165 165 155 163 167 176 182 176 174 172 172 173 174 171 169
294 289 286 286 282 282 281 280 276 269 267 268 270 268 267 264 262 256 251 253 256 258 254 253 256 255 256 259 270 281 282 281 277 259 219 187 179 178 173 171 171 167 164 164 165 163 162 164 165 165 170 171 176 174 172 158 157 163 170 166 158 160 167 167 180 199 274 167 150 142 154 189 155 161 175 178 173 176 176 182 180 179 176 171 169
289 289 283 281 281 281 281 278 275 270 267 262 263 264 264 263 260 257 252 251 251 253 255 250 249 252 259 265 270 279 278 279 277 254 220 194 178 179 177 176 175 171 168 167 164 166 165 162 167 176 172 175 174 172 165 160 169 163 164 162 166 173 174 178 172 177 179 163 144 152 160 181 174 162 172 186 176 178 185 184 181 177 176 173 172
289 287 285 282 280 278 274 273 273 270 267 266 267 266 264 262 261 259 255 252 248 251 254 255 250 251 255 264 274 273 278 283 277 248 222 197 180 178 179 178 178 177 175 171 166 166 169 165 172 177 179 171 170 180 173 171 161 163 167 172 173 176 175 175 170 142 154 172 145 150 166 184 167 169 178 188 183 183 187 185 177 177 178 176 174
282 278 280 276 275 275 273 269 270 271 265 263 264 266 266 265 262 260 254 250 249 248 251 253 253 250 250 255 264 274 281 285 273 248 218 200 181 178 176 176 178 180 178 175 172 166 165 169 171 178 186 171 177 178 174 159 160 169 172 178 174 171 174 175 150 148 153 166 162 148 142 183 193 172 187 173 152 164 178 182 179 179 180 178 176
284 282 283 283 276 271 268 267 269 268 265 264 265 266 265 261 258 261 261 261 261 257 250 250 249 247 244 244 249 260 274 276 273 245 213 200 180 172 175 176 177 179 180 181 177 172 173 174 176 179 176 185 174 161 160 174 172 172 175 171 165 155 120 84 75 112 160 192 161 151 181 180 172 176 184 157 158 163 163 188 186 185 183 180 177
274 275 274 271 270 270 268 264 262 266 268 265 263 265 266 265 259 252 251 249 252 254 254 248 244 239 239 234 243 252 260 267 269 243 214 191 180 172 177 178 177 179 185 187 181 178 177 177 177 169 172 177 169 165 166 171 160 123 89 82 87 111 127 144 149 156 175 200 204 167 129 164 176 175 156 132 141 160 162 176 192 189 189 183 180
281 274 273 271 270 268 264 259 260 264 265 267 269 268 266 261 256 254 256 255 249 250 249 243 237 236 232 231 234 251 254 262 261 245 217 185 180 176 175 175 176 178 189 188 189 183 175 173 173 173 169 165 168 171 167 162 153 140 133 139 158 159 158 159 156 163 191 179 208 150 127 154 172 165 126 137 155 154 167 182 188 193 191 189 183
295 282 279 276 268 263 261 263 258 257 262 264 267 267 263 258 248 243 242 247 247 245 247 237 232 230 232 231 233 242 252 254 260 244 217 190 179 176 172 170 174 180 185 176 174 196 192 178 174 170 162 163 165 169 167 161 153 152 156 169 172 165 171 171 170 178 152 177 193 158 136 173 150 143 120 88 83 56 172 175 176 189 190 192 190
298 289 276 267 267 264 256 251 258 261 260 263 263 264 263 257 249 240 239 235 239 238 239 238 227 228 233 237 234 239 243 252 257 249 212 193 182 173 170 170 175 181 181 169 171 165 156 139 157 153 155 159 158 159 164 163 162 167 173 169 157 168 173 171 154 135 147 208 196 170 154 151 159 174 145 121 167 239 153 185 178 188 188 183 190